Regional Weather Roundup
Issued by NWS San Diego, CA

Home | Current Version | Previous Version | Text Only | Print | Product List | Glossary On
Versions: 1 2 3 4 5 6 7 8 9 10 11 12 13 14 15 16 17 18 19 20 21 22 23 24 25 26 27 28 29 30 31 32 33 34 35 36 37 38 39 40 41 42 43 44 45 46 47 48 49 50
432
ASUS46 KSGX 212311
RWRSGX

SAN DIEGO HOURLY WEATHER ROUNDUP
NATIONAL WEATHER SERVICE SAN DIEGO CA
400 PM PDT MON MAY 21 2018

NOTE: "FAIR" INDICATES FEW OR NO CLOUDS BELOW 12,000 FEET WITH NO
SIGNIFICANT WEATHER AND/OR OBSTRUCTIONS TO VISIBILITY.

CAZ042-043-060-061-PZZ750-775-220000-

GREATER SAN DIEGO AREA

CITY           SKY/WX    TMP DP  RH WIND       PRES   REMARKS
SAN DIEGO AP   CLOUDY    61  55  81 S10       29.90F
NATIONAL CITY    N/A     61  56  82 S5        29.91F
CHULA VISTA      N/A     61  56  84 W5        29.82S
IMPERIAL BEACH DRIZZLE   60  55  83 S6        29.91S
BROWN FIELD    CLOUDY    59  54  83 W10       29.90S
MIRAMAR MCAS   CLOUDY    64  53  67 S8        29.88F
MONTGOMERY FLD CLOUDY    60  54  80 SE9       29.88F
GILLESPIE FLD  CLOUDY    64  52  63 SW14G21   29.89S

$$

NORTH SAN DIEGO COUNTY

CITY           SKY/WX    TMP DP  RH WIND       PRES   REMARKS
OCEANSIDE AP   CLOUDY    64  53  67 W9        29.87F
OCEANSIDE HBR    N/A     62  56  80 SW1       29.90F
VISTA            N/A     63  55  75 CALM      29.85S
CARLSBAD       CLOUDY    61  54  77 S9        29.87S
DEL MAR          N/A     61  54  78 CALM      29.89F
LA JOLLA SCRIP   N/A     60  56  86 SW3       29.88F
FALLBROOK        N/A     66  57  74 S2        29.87S
ESCONDIDO        N/A     67  54  62 SW3       29.87S
SAN MARCOS       N/A     61  54  76 SW3       29.91S
POWAY            N/A     65  54  65 W6        29.87S

$$

EAST SAN DIEGO COUNTY

CITY           SKY/WX    TMP DP  RH WIND       PRES   REMARKS
RAMONA         PTSUNNY   65  50  58 SW9       29.86F
SANTEE LAKES     N/A     63  54  73 SW5       29.87S
LA MESA          N/A     61  54  78 CALM      29.83F
JAMUL            N/A     65  53  65 CALM      29.88S
CAMPO            N/A     64  46  52 SW17G25   29.82F

$$

ORANGE COUNTY AND THE LOS ANGELES BASIN

CITY           SKY/WX    TMP DP  RH WIND       PRES   REMARKS
JOHN WAYNE AP  CLOUDY    64  51  62 S9        29.87F
LAGUNA BEACH     N/A     64  56  75 CALM      29.83F
HUNTINGTON BCH   N/A     65  57  74 W6        29.88F
LOS ALAMITOS   CLOUDY    65  51  62 SW7       29.87S
FULLERTON      CLOUDY    66  53  63 SW7       29.86F
LONG BEACH     CLOUDY    65  51  60 S7        29.87F
L.A. AP        MOSUNNY   65  52  62 W12       29.88S
L.A. DOWNTOWN  CLOUDY    65  52  62 CALM      29.86F

$$

THE INLAND EMPIRE

CITY           SKY/WX    TMP DP  RH WIND       PRES   REMARKS
CORONA         MOSUNNY   67  54  63 W16G23    29.86F
CHINO          PTSUNNY   66  52  60 W15       29.87F
ONTARIO        MOSUNNY   66  51  58 W12       29.86F
SAN BERNARDINO CLOUDY    72  50  46 W9        29.85F HAZE
RIVERSIDE AP   PTSUNNY   67  53  61 W10G22    29.85F
MORENO VALLEY    N/A     69  58  70 W5        27.96F
MARCH ARB      PTSUNNY   67  52  59 W12       29.84F
HORSETHIEF CYN   N/A     66  49  55 E6        29.83F
PERRIS           N/A     65  55  70 W5          N/A
HEMET EAST       N/A     66  49  54 CALM      29.78F
FRENCH VALLEY  FAIR      64  50  59 SW9       29.86S
TEMECULA         N/A     69  55  60 W12       29.87F

$$

SAN BERNARDINO AND RIVERSIDE COUNTY MOUNTAINS

CITY           SKY/WX    TMP DP  RH WIND       PRES   REMARKS
BIG BEAR AP    CLOUDY    57  28  33 NW10G21   29.91S
ANGELUS OAKS     N/A     56  45  68 CALM      29.70F

$$

SOUTHERN DESERT INCLUDING THE COACHELLA VALLEY

CITY           SKY/WX    TMP DP  RH WIND       PRES   REMARKS
PALM SPRINGS   SUNNY     85  46  25 NW23      29.68F
THOUSAND PALMS   N/A     83  49  29 NW16      29.65F
PALM DESERT      N/A     87  49  26 N13       26.64S
THERMAL        SUNNY     91  43  18 N15       29.63F
BLYTHE         SUNNY     92  32  12 S14       29.63F
IMPERIAL AP    SUNNY     89  41  18 W25G32    29.63F
EL CENTRO NAS  MOSUNNY   90  35  14 SW29      29.66F
YUMA AZ        MOSUNNY   90  41  18 VRB3      29.64F
MEXICALI       SUNNY     90  39  17 N6        29.65

$$

UPPER DESERT

CITY           SKY/WX    TMP DP  RH WIND       PRES   REMARKS
VICTORVILLE AP SUNNY    N/A N/A N/A S14G25    29.79S
HESPERIA         N/A     64  47  53 W12       29.77S
APPLE VALLEY     N/A     67  48  49 NW20      29.75S
PALMDALE       SUNNY     69  45  41 SW24      29.79F
LANCASTER      SUNNY     65  49  56 SW26G37   29.79F
EDWARDS AFB    MOSUNNY   70  44  39 SW28G36   29.75S
DAGGETT        MOSUNNY   83  35  18 W17G23    29.71S
29 PALMS N     PTSUNNY   85  29  13 W9        29.75F
NEEDLES        MOSUNNY   92  30  11 S13G18    29.65F

$$

REGIONAL REPORTS

CITY           SKY/WX    TMP DP  RH WIND       PRES   REMARKS
SANTA BARBARA  MOSUNNY   66  50  56 S6        29.86F
SANDBERG       CLOUDY    50  47  89 S12G18    29.89F
LAS VEGAS NV   PTSUNNY   83  29  14 SE12G21   29.70F
PHOENIX AZ     PTSUNNY   94  28   9 W12G23    29.64F
TIJUANA        CLOUDY    59  54  82 S6        29.93R
ENSENADA NW      N/A     62  32  32 W3        29.85F

$$

OFFSHORE ISLANDS

CITY           SKY/WX    TMP DP  RH WIND       PRES   REMARKS
CATALINA ARPT  NOT AVBL
SAN CLEMENTE I CLOUDY    61  50  67 W18       29.91F
SAN NICOLAS IS MOSUNNY   61  45  55 NW23G35   29.89F

$$

MARINE AND OFFSHORE BUOY REPORTS

STATION/POSITION SKY/WX   TEMP    WIND        PRES    VSBY  SWELL
                          AIR SEA DIR/SP/G                  HT/PER/DIR
                          (F)     (DEG/KT/KT) (MB)    (MI)  (FT/S/D)
TANNER BANKS               58 58              1013.0F
S CLEMENTE BASIN           58 62  290/ 17/ 19 1012.3F         3/300/12
SAN NICOLAS IS.               56                N/A           3/300/12
SO. S. ROSA ISLA           54 55  290/ 16/ 19 1012.6F         7/310/ 8
W. S. BARBARA CH              54  310/ 16/ 19 1012.5F         5/290/11
M. S. BARBARA CH           55 58  270/ 16/ 19 1012.2
S. MONICA BASIN                   270/  8/ 10 1011.6F         3/260/11
S PEDRO CHANNEL               63                N/A           2/270/12
CMP PENDLETON NS              64                N/A           2/220/18
OCEANSIDE OFFSHR              64                N/A           2/190/14
TORREY PINES OTR              63                N/A           3/210/20
SAN DIEGO BAY                 66              1011.9F
POINT LOMA SOUTH              62                N/A           3/210/13

$$





USA.gov is the U.S. government's official web portal to all federal, state and local government web resources and services.